Regional Weather Roundup
Issued by NWS New Orleans/Baton Rouge, LA

Home | Current Version | Previous Version | Text Only | Print | Product List | Glossary On
Versions: 1 2 3 4 5 6 7 8 9 10 11 12 13 14 15 16 17 18 19 20 21 22 23 24 25 26 27 28 29 30 31 32 33 34 35 36 37 38 39 40 41 42 43 44 45 46 47 48 49 50
000
ASUS44 KLIX 042311
RWRLIX
NEW ORLEANS REGIONAL WEATHER ROUNDUP
NATIONAL WEATHER SERVICE NEW ORLEANS LA
600 PM CDT SAT JUL 04 2015

NOTE: "FAIR" INDICATES FEW OR NO CLOUDS BELOW 12,000 FEET WITH NO
      SIGNIFICANT WEATHER AND/OR OBSTRUCTIONS TO VISIBILITY.
      SKY/WX - SKY CONDITION AND SIGNIFICANT WEATHER.
      TMP - AIR TEMPERATURE.     DP    - DEWPOINT TEMPERATURE.
      RH  - RELATIVE HUMIDITY.   PRES  - PRESSURE.
      HI  - HEAT INDEX.          WCI   - WIND CHILL INDEX.

*  THESE STATIONS ARE NOT NWS OR FAA STATIONS AND ARE NOT UNDER
   NWS QUALITY CONTROL.

LAZ038-040-048-061>063-065>067-069-050000-
SOUTHEAST LOUISIANA

CITY           SKY/WX    TMP DP  RH WIND       PRES   REMARKS
N.O. AUDUBON     N/A     88  77  68 MISG        N/A  HX 100
N.O. INTL ARPT CLOUDY    82  72  71 N5        30.04F
N.O. LAKEFRONT CLOUDY    86  72  62 NW13      30.05F
N.O. DOWNTOWN*   N/A     86  72  62 N6        30.06S
RESERVE*         N/A     83  73  71 CALM      30.04F
SLIDELL        CLOUDY    80  72  76 N8        30.05S
BATON ROUGE    CLOUDY    75  73  93 E6        30.03F
BOOTHVILLE     MOSUNNY   87  76  69 SW9       30.05S HX  97
BELLE CHASSE   CLOUDY    85  72  65 VRB5      30.04S
BOGALUSA*        N/A     77  70  81 NW7       30.09S
GALLIANO*      CLOUDY    88  74  62 MISG      30.04F HX  96
NEW ROADS*       N/A    N/A N/A N/A CALM      30.04S
GONZALES*        N/A     79  77  93 N5        30.03F
HAMMOND*       CLOUDY    75  70  83 NE3       30.06F
HOUMA*         MOSUNNY   86  75  70 SW5       30.04F HX  95
PORT FOURCHON* MOCLDY    86  75  70 MISG      30.05F HX  95

$$

MSZ070-080>082-050000-
SOUTHERN MISSISSIPPI

CITY           SKY/WX    TMP DP  RH WIND       PRES   REMARKS
MCCOMB         LGT RAIN  71  71 100 S5        30.04F
GULFPORT       CLOUDY    81  69  67 N10       30.06R
BILOXI         CLOUDY    75  73  93 E6        30.08R
PASCAGOULA     HVY RAIN  73  69  87 NW12G30   30.10R FOG
STENNIS ARPT*  MOSUNNY  N/A N/A N/A MISG      30.06R

$$

COASTAL OBSERVATIONS
LAKE AND NEARSHORE STATIONS

STATION/POSITION TIME  TEMP    WIND        PRES    WAVE
                       AIR SEA DIR/SP/G            HT/PER
                 (UTC) (F)     (DEG/KT/KT) (MB)    (FT/S)
PASCAGOULA       2200   87     260/  4/ 10 1016.9
WAVELAND YACHT   2200   83 86  310/  9/ 12 1017.6
GRAND ISLE       2200   86 87  220/  8/ 12 1017.6
SOUTHWEST PASS   2200   89 83  230/  8/  9 1018.1
NEW CANAL        2200   83 85  310/  2/  8 1017.0
SHELL BEACH      2200   87 86  280/ 14/ 16 1016.5

OFFSHORE STATIONS

STATION/POSITION TIME  TEMP    WIND        PRES    WAVE
                       AIR SEA DIR/SP/G            HT/PER
                 (UTC) (F)     (DEG/KT/KT) (MB)    (FT/S)
64 S DAUPHIN ISL 2250   86 88  240/  8/ 10 1017.9    2/ 4

$$




USA.gov is the U.S. government's official web portal to all federal, state and local government web resources and services.